NOAA 16 DEB

Satellite information

Favourite Embed

Satellite Type and Status

DEBRISIN ORBIT

Key statistics

Satellite NOAA 16 DEB at a glance.

Uptime

9215

Days in orbit

Revolutions

≈ 14.4

Per day

Orbit

SSO

Sun Synchronous Orbit

Inclination

98.8

Latest

Satellite identification and parameters

Extended collection of information and parameters for NOAA 16 DEB.

Object identification

Identified? True

Debris? True

Object name: NOAA 16 DEB

International designator: 2000-055RG

Object number (NORAD): 42364

Object ID (CCSDS): 42364

Country: UNITED STATES OF AMERICA (US)

Current information (Y/N): Y

RCS size: SMALL

Orbital parameters

Period: 99.744 minutes

Inclination: 98.797 deg

SMA: 7124.451 km

Apoapsis: 775.806 km

Periapsis: 716.825 km

RAAN: 91.4514 deg

Eccentricy: 0.00413932

Argument of periapsis: 147.3975 deg

Mean anomaly: 212.9782 deg

Mean motion: 14.43695738 rev/day

Mean motion (dot): 0.00018261 rev/day2

B* drag term: 0.0053205355 1/REarth

Two-line elements (TLE)

Creation date: Dec. 12, 2025, 10:14 a.m.

Reference frame: TEME

Reference center: EARTH

Epoch: Dec. 12, 2025, 5:58 a.m. UTC

TLE line 0: 0 NOAA 16 DEB

TLE line 1: 1 42364U 00055RG 25346.24864199 .00018261 00000-0 53205-2 0 9997

TLE line 2: 2 42364 98.7970 91.4514 0041393 147.3975 212.9782 14.43695738501941

Live tracking on map

Real-time ground track for satellite NOAA 16 DEB.

In-orbit conjunctions

A list of the most updated potential collisions computed for object NOAA 16 DEB.

Target Orbit TCA Probability of collision Miss distance Type
DMSP 5D-2 F10 (USA 68) SSO 2025-05-17 12:51:38 0.000154003 261.0 (m) PAYLOAD
COSMOS 372 LEO 2025-03-14 12:19:11 0.0002897449 212.0 (m) PAYLOAD
SL-8 R/B LEO 2025-01-19 20:50:24 0.0001005719 254.0 (m) ROCKET BODY
NOAA 17 DEB SSO 2024-09-26 03:16:54 0.0002314632 430.0 (m) DEBRIS
SL-3 R/B LEO 2024-08-25 08:05:33 0.0001055214 551.0 (m) ROCKET BODY

Associated space launch

The NOAA K, L and M POES satellites begin the fifth generation of improved environmental monitoring in support of NOAA missions. The instrument payload has significant improvements and additions/deletions. The instrument changes have effected the spacecraft subsystems and data formats.

NOAA 16 DEB was lifted into orbit during the mission ‘Titan II SLV | NOAA 16’, on board a Titan II SLV space rocket.

The launch took place on Sept. 21, 2000, 10:22 a.m. from Space Launch Complex 4W.

For more information about the launch, click the button.

Launch to space Titan II SLV | NOAA 16
Titan II SLV | NOAA 16

Agency: N/A

Status: Launch Successful

Launch date: Sept. 21, 2000, 10:22 a.m. UTC

Rocket: Titan II SLV

Launch pad: Space Launch Complex 4W

Location: Vandenberg SFB, CA, USA

...

Latest news about this satellite

There are no fresh news available about this satellite. Check back as we update our databases every day.


Newsletter sign-up

Weekly statistics, charts and insights to help you stay on top of the space industry.